| time (UTC) | temp C | wind direction | speed KPH | gust KPH | rain 1hr cm | rain 24hr cm | rain mn cm | humidity % | barometer mb |
| 20260507210521 | 31 | 64 | 4.8 | 17.7 | 0.00 | 0.00 | 0.00 | 11 | 1012.5 |
| 20260507210028 | 31 | 46 | 6.4 | 17.7 | 0.00 | 0.00 | 0.00 | 12 | 1012.5 |
| 20260507205529 | 31 | 262 | 3.2 | 11.3 | 0.00 | 0.00 | 0.00 | 11 | 1012.6 |
| 20260507205025 | 30 | 321 | 3.2 | 16.1 | 0.00 | 0.00 | 0.00 | 11 | 1012.7 |
| 20260507204521 | 31 | 20 | 9.7 | 16.1 | 0.00 | 0.00 | 0.00 | 11 | 1012.9 |
| 20260507204017 | 30 | 35 | 9.7 | 17.7 | 0.00 | 0.00 | 0.00 | 11 | 1012.8 |
| 20260507203517 | 30 | 356 | 11.3 | 17.7 | 0.00 | 0.00 | 0.00 | 12 | 1012.9 |
| 20260507203013 | 31 | 328 | 3.2 | 27.4 | 0.00 | 0.00 | 0.00 | 11 | 1012.9 |
| 20260507202529 | 31 | 340 | 9.7 | 27.4 | 0.00 | 0.00 | 0.00 | 12 | 1012.9 |
| 20260507202025 | 30 | 339 | 4.8 | 17.7 | 0.00 | 0.00 | 0.00 | 11 | 1013.0 |
| 20260507201521 | 31 | 42 | 8.0 | 19.3 | 0.00 | 0.00 | 0.00 | 11 | 1013.1 |
| 20260507201016 | 30 | 12 | 11.3 | 19.3 | 0.00 | 0.00 | 0.00 | 11 | 1013.0 |
| 20260507200532 | 30 | 360 | 8.0 | 16.1 | 0.00 | 0.00 | 0.00 | 11 | 1013.1 |
| 20260507200044 | 30 | 2 | 8.0 | 16.1 | 0.00 | 0.00 | 0.00 | 11 | 1013.1 |
| 20260507195525 | 31 | 70 | 6.4 | 14.5 | 0.00 | 0.00 | 0.00 | 11 | 1013.3 |
| 20260507195021 | 30 | 223 | 3.2 | 14.5 | 0.00 | 0.00 | 0.00 | 12 | 1013.3 |
| 20260507194516 | 30 | 202 | 4.8 | 14.5 | 0.00 | 0.00 | 0.00 | 11 | 1013.5 |
| 20260507194013 | 31 | 318 | 3.2 | 6.4 | 0.00 | 0.00 | 0.00 | 11 | 1013.3 |
| 20260507193528 | 30 | 348 | 3.2 | 12.9 | 0.00 | 0.00 | 0.00 | 11 | 1013.6 |
| 20260507193024 | 30 | 331 | 3.2 | 14.5 | 0.00 | 0.00 | 0.00 | 12 | 1013.6 |
| 20260507192524 | 30 | 26 | 4.8 | 9.7 | 0.00 | 0.00 | 0.00 | 12 | 1013.8 |
| 20260507192020 | 31 | 2 | 1.6 | 9.7 | 0.00 | 0.00 | 0.00 | 13 | 1013.8 |
| 20260507191515 | 30 | 9 | 3.2 | 8.0 | 0.00 | 0.00 | 0.00 | 12 | 1013.8 |
| 20260507191031 | 30 | 329 | 1.6 | 8.0 | 0.00 | 0.00 | 0.00 | 12 | 1013.9 |
| 20260507190527 | 31 | 11 | 3.2 | 8.0 | 0.00 | 0.00 | 0.00 | 12 | 1014.1 |
| 20260507190034 | 30 | 36 | 3.2 | 8.0 | 0.00 | 0.00 | 0.00 | 12 | 1014.1 |
| 20260507185516 | 31 | 9 | 3.2 | 8.0 | 0.00 | 0.00 | 0.00 | 13 | 1014.1 |
| 20260507185016 | 30 | 16 | 3.2 | 8.0 | 0.00 | 0.00 | 0.00 | 13 | 1014.3 |
| 20260507184531 | 28 | 66 | 3.2 | 12.9 | 0.00 | 0.00 | 0.00 | 14 | 1014.4 |
| 20260507184027 | 29 | 63 | 8.0 | 12.9 | 0.00 | 0.00 | 0.00 | 14 | 1014.5 |
| 20260507183524 | 30 | 328 | 1.6 | 8.0 | 0.00 | 0.00 | 0.00 | 13 | 1014.6 |
| 20260507183020 | 29 | 325 | 3.2 | 9.7 | 0.00 | 0.00 | 0.00 | 14 | 1014.6 |
| 20260507182516 | 29 | 348 | 3.2 | 11.3 | 0.00 | 0.00 | 0.00 | 15 | 1014.7 |
| 20260507182032 | 28 | 41 | 6.4 | 12.9 | 0.00 | 0.00 | 0.00 | 16 | 1014.7 |
| 20260507181527 | 30 | 352 | 3.2 | 6.4 | 0.00 | 0.00 | 0.00 | 16 | 1014.8 |
| 20260507181027 | 28 | 352 | 3.2 | 12.9 | 0.00 | 0.00 | 0.00 | 16 | 1014.9 |
| 20260507180523 | 28 | 356 | 3.2 | 12.9 | 0.00 | 0.00 | 0.00 | 16 | 1014.9 |
| 20260507180031 | 28 | 9 | 3.2 | 9.7 | 0.00 | 0.00 | 0.00 | 17 | 1014.9 |
| 20260507175532 | 29 | 24 | 3.2 | 8.0 | 0.00 | 0.00 | 0.00 | 16 | 1015.0 |
| 20260507175028 | 27 | 38 | 4.8 | 8.0 | 0.00 | 0.00 | 0.00 | 16 | 1015.0 |
| 20260507174524 | 27 | 64 | 4.8 | 8.0 | 0.00 | 0.00 | 0.00 | 16 | 1015.0 |
| 20260507174020 | 27 | 58 | 3.2 | 8.0 | 0.00 | 0.00 | 0.00 | 17 | 1015.2 |
| 20260507173519 | 27 | 47 | 4.8 | 8.0 | 0.00 | 0.00 | 0.00 | 17 | 1015.3 |
| 20260507173015 | 27 | 132 | 1.6 | 6.4 | 0.00 | 0.00 | 0.00 | 18 | 1015.3 |
| 20260507172531 | 27 | 131 | 4.8 | 6.4 | 0.00 | 0.00 | 0.00 | 18 | 1015.4 |
| 20260507172027 | 28 | 155 | 1.6 | 8.0 | 0.00 | 0.00 | 0.00 | 18 | 1015.4 |
| 20260507171523 | 27 | 219 | 3.2 | 12.9 | 0.00 | 0.00 | 0.00 | 19 | 1015.5 |
| 20260507171019 | 27 | 227 | 4.8 | 12.9 | 0.00 | 0.00 | 0.00 | 19 | 1015.6 |
| 20260507170514 | 26 | 102 | 0.0 | 4.8 | 0.00 | 0.00 | 0.00 | 20 | 1015.5 |
| 20260507170027 | 25 | 104 | 1.6 | 8.0 | 0.00 | 0.00 | 0.00 | 20 | 1015.5 |
| 20260507165528 | 25 | 105 | 4.8 | 8.0 | 0.00 | 0.00 | 0.00 | 21 | 1015.8 |
| 20260507165024 | 25 | 210 | 1.6 | 11.3 | 0.00 | 0.00 | 0.00 | 20 | 1015.7 |
| 20260507164519 | 25 | 113 | 4.8 | 12.9 | 0.00 | 0.00 | 0.00 | 21 | 1015.7 |
| 20260507164015 | 25 | 211 | 1.6 | 12.9 | 0.00 | 0.00 | 0.00 | 20 | 1015.8 |
| 20260507163531 | 25 | 116 | 3.2 | 8.0 | 0.00 | 0.00 | 0.00 | 22 | 1015.8 |
| 20260507163027 | 23 | 126 | 4.8 | 11.3 | 0.00 | 0.00 | 0.00 | 22 | 1015.8 |
| 20260507162527 | 23 | 141 | 3.2 | 11.3 | 0.00 | 0.00 | 0.00 | 23 | 1015.9 |
| 20260507162023 | 23 | 126 | 3.2 | 9.7 | 0.00 | 0.00 | 0.00 | 23 | 1016.0 |
| 20260507161519 | 23 | 210 | 3.2 | 9.7 | 0.00 | 0.00 | 0.00 | 23 | 1016.0 |
| 20260507161015 | 22 | 90 | 6.4 | 12.9 | 0.00 | 0.00 | 0.00 | 25 | 1016.1 |
| 20260507160530 | 22 | 96 | 8.0 | 12.9 | 0.00 | 0.00 | 0.00 | 24 | 1016.2 |
| 20260507160038 | 23 | 92 | 3.2 | 11.3 | 0.00 | 0.00 | 0.00 | 24 | 1016.3 |
| 20260507155519 | 23 | 61 | 1.6 | 4.8 | 0.00 | 0.00 | 0.00 | 24 | 1016.1 |
| 20260507155019 | 23 | 60 | 3.2 | 8.0 | 0.00 | 0.00 | 0.00 | 25 | 1016.3 |
| 20260507154515 | 22 | 61 | 3.2 | 8.0 | 0.00 | 0.00 | 0.00 | 26 | 1016.4 |
| 20260507154031 | 22 | 87 | 3.2 | 11.3 | 0.00 | 0.00 | 0.00 | 26 | 1016.4 |
| 20260507153526 | 22 | 90 | 4.8 | 11.3 | 0.00 | 0.00 | 0.00 | 25 | 1016.4 |
| 20260507153022 | 22 | 85 | 1.6 | 6.4 | 0.00 | 0.00 | 0.00 | 26 | 1016.4 |
| 20260507152518 | 21 | 88 | 3.2 | 6.4 | 0.00 | 0.00 | 0.00 | 27 | 1016.5 |
| 20260507152014 | 20 | 72 | 3.2 | 6.4 | 0.00 | 0.00 | 0.00 | 27 | 1016.4 |
| 20260507151514 | 21 | 58 | 3.2 | 8.0 | 0.00 | 0.00 | 0.00 | 29 | 1016.5 |
| 20260507151031 | 20 | 89 | 3.2 | 8.0 | 0.00 | 0.00 | 0.00 | 28 | 1016.4 |
| 20260507150527 | 20 | 136 | 3.2 | 8.0 | 0.00 | 0.00 | 0.00 | 29 | 1016.5 |
| 20260507150035 | 19 | 141 | 3.2 | 8.0 | 0.00 | 0.00 | 0.00 | 30 | 1016.5 |
| 20260507145516 | 19 | 152 | 1.6 | 8.0 | 0.00 | 0.00 | 0.00 | 30 | 1016.5 |
| 20260507145012 | 19 | 119 | 3.2 | 8.0 | 0.00 | 0.00 | 0.00 | 31 | 1016.5 |
| 20260507144528 | 18 | 118 | 4.8 | 8.0 | 0.00 | 0.00 | 0.00 | 30 | 1016.5 |
| 20260507144024 | 18 | 137 | 1.6 | 8.0 | 0.00 | 0.00 | 0.00 | 33 | 1016.5 |
| 20260507143523 | 18 | 164 | 1.6 | 9.7 | 0.00 | 0.00 | 0.00 | 34 | 1016.6 |
| 20260507143019 | 17 | 148 | 4.8 | 9.7 | 0.00 | 0.00 | 0.00 | 33 | 1016.7 |
| 20260507142514 | 18 | 140 | 3.2 | 9.7 | 0.00 | 0.00 | 0.00 | 34 | 1016.6 |
| 20260507142030 | 17 | 115 | 4.8 | 8.0 | 0.00 | 0.00 | 0.00 | 35 | 1016.6 |
| 20260507141526 | 17 | 125 | 3.2 | 8.0 | 0.00 | 0.00 | 0.00 | 34 | 1016.5 |
| 20260507141022 | 17 | 159 | 1.6 | 9.7 | 0.00 | 0.00 | 0.00 | 35 | 1016.5 |
| 20260507140518 | 17 | 130 | 3.2 | 8.0 | 0.00 | 0.00 | 0.00 | 35 | 1016.5 |
| 20260507140030 | 17 | 159 | 1.6 | 8.0 | 0.00 | 0.00 | 0.00 | 35 | 1016.4 |
| 20260507135531 | 17 | 128 | 3.2 | 8.0 | 0.00 | 0.00 | 0.00 | 36 | 1016.4 |
| 20260507135027 | 16 | 159 | 1.6 | 6.4 | 0.00 | 0.00 | 0.00 | 38 | 1016.5 |
| 20260507134524 | 16 | 142 | 1.6 | 6.4 | 0.00 | 0.00 | 0.00 | 38 | 1016.4 |
| 20260507134020 | 16 | 128 | 0.0 | 3.2 | 0.00 | 0.00 | 0.00 | 40 | 1016.4 |
| 20260507133516 | 15 | 113 | 1.6 | 4.8 | 0.00 | 0.00 | 0.00 | 41 | 1016.4 |
| 20260507133031 | 15 | 111 | 1.6 | 4.8 | 0.00 | 0.00 | 0.00 | 43 | 1016.4 |
| 20260507132531 | 14 | 148 | 0.0 | 6.4 | 0.00 | 0.00 | 0.00 | 44 | 1016.3 |
| 20260507132028 | 14 | 143 | 1.6 | 6.4 | 0.00 | 0.00 | 0.00 | 46 | 1016.3 |
| 20260507131524 | 13 | 146 | 0.0 | 4.8 | 0.00 | 0.00 | 0.00 | 47 | 1016.3 |
| 20260507131020 | 13 | 144 | 0.0 | 6.4 | 0.00 | 0.00 | 0.00 | 48 | 1016.3 |
| 20260507130516 | 13 | 143 | 1.6 | 6.4 | 0.00 | 0.00 | 0.00 | 49 | 1016.2 |
| 20260507130043 | 13 | 143 | 0.0 | 3.2 | 0.00 | 0.00 | 0.00 | 49 | 1016.2 |
| 20260507125525 | 12 | 142 | 0.0 | 1.6 | 0.00 | 0.00 | 0.00 | 50 | 1016.2 |
| 20260507125024 | 12 | 136 | 0.0 | 0.0 | 0.00 | 0.00 | 0.00 | 51 | 1016.1 |
| 20260507124520 | 12 | 136 | 0.0 | 0.0 | 0.00 | 0.00 | 0.00 | 51 | 1016.1 |
| 20260507124016 | 12 | 136 | 0.0 | 0.0 | 0.00 | 0.00 | 0.00 | 51 | 1016.1 |
| 20260507123512 | 12 | 136 | 0.0 | 0.0 | 0.00 | 0.00 | 0.00 | 50 | 1016.0 |
| 20260507123028 | 12 | 136 | 0.0 | 0.0 | 0.00 | 0.00 | 0.00 | 50 | 1016.0 |
| 20260507122524 | 12 | 136 | 0.0 | 0.0 | 0.00 | 0.00 | 0.00 | 50 | 1016.0 |
| 20260507122020 | 12 | 135 | 0.0 | 0.0 | 0.00 | 0.00 | 0.00 | 50 | 1016.0 |
| 20260507121519 | 12 | 136 | 0.0 | 1.6 | 0.00 | 0.00 | 0.00 | 50 | 1016.0 |
| 20260507121015 | 13 | 136 | 0.0 | 1.6 | 0.00 | 0.00 | 0.00 | 48 | 1015.9 |
| 20260507120531 | 13 | 136 | 0.0 | 0.0 | 0.00 | 0.00 | 0.00 | 48 | 1015.9 |
| 20260507120039 | 13 | 136 | 0.0 | 1.6 | 0.00 | 0.00 | 0.00 | 49 | 1015.9 |
| 20260507115521 | 13 | 136 | 0.0 | 3.2 | 0.00 | 0.00 | 0.00 | 48 | 1016.0 |
| 20260507115016 | 13 | 136 | 0.0 | 4.8 | 0.00 | 0.00 | 0.00 | 48 | 1016.0 |
| 20260507114512 | 14 | 204 | 1.6 | 4.8 | 0.00 | 0.00 | 0.00 | 44 | 1016.0 |
| 20260507114012 | 14 | 204 | 1.6 | 6.4 | 0.00 | 0.00 | 0.00 | 45 | 1016.1 |
| 20260507113528 | 13 | 205 | 1.6 | 6.4 | 0.00 | 0.00 | 0.00 | 45 | 1016.1 |
| 20260507113024 | 13 | 206 | 0.0 | 6.4 | 0.00 | 0.00 | 0.00 | 45 | 1016.1 |
| 20260507112520 | 13 | 206 | 0.0 | 6.4 | 0.00 | 0.00 | 0.00 | 45 | 1016.1 |
| 20260507112016 | 14 | 221 | 0.0 | 6.4 | 0.00 | 0.00 | 0.00 | 44 | 1016.1 |
| 20260507111512 | 13 | 293 | 0.0 | 3.2 | 0.00 | 0.00 | 0.00 | 44 | 1016.0 |
| 20260507111028 | 13 | 293 | 0.0 | 3.2 | 0.00 | 0.00 | 0.00 | 44 | 1016.0 |
| 20260507110523 | 13 | 293 | 0.0 | 1.6 | 0.00 | 0.00 | 0.00 | 46 | 1015.9 |
| 20260507110035 | 13 | 293 | 0.0 | 1.6 | 0.00 | 0.00 | 0.00 | 45 | 1015.8 |
| 20260507105516 | 14 | 293 | 0.0 | 1.6 | 0.00 | 0.00 | 0.00 | 44 | 1015.8 |
| 20260507105012 | 13 | 293 | 0.0 | 1.6 | 0.00 | 0.00 | 0.00 | 46 | 1015.9 |
| 20260507104527 | 13 | 293 | 0.0 | 1.6 | 0.00 | 0.00 | 0.00 | 46 | 1015.8 |
| 20260507104023 | 14 | 293 | 0.0 | 1.6 | 0.00 | 0.00 | 0.00 | 45 | 1015.9 |
| 20260507103518 | 14 | 293 | 0.0 | 3.2 | 0.00 | 0.00 | 0.00 | 42 | 1015.9 |
| 20260507103014 | 15 | 293 | 0.0 | 3.2 | 0.00 | 0.00 | 0.00 | 41 | 1015.9 |
| 20260507102514 | 15 | 293 | 0.0 | 3.2 | 0.00 | 0.00 | 0.00 | 42 | 1016.0 |
| 20260507102029 | 15 | 293 | 0.0 | 3.2 | 0.00 | 0.00 | 0.00 | 42 | 1016.0 |
| 20260507101524 | 14 | 293 | 1.6 | 3.2 | 0.00 | 0.00 | 0.00 | 45 | 1016.0 |
| 20260507101020 | 14 | 293 | 0.0 | 0.0 | 0.00 | 0.00 | 0.00 | 44 | 1016.0 |
| 20260507100516 | 14 | 293 | 0.0 | 1.6 | 0.00 | 0.00 | 0.00 | 43 | 1016.1 |
| 20260507100043 | 15 | 293 | 0.0 | 1.6 | 0.00 | 0.00 | 0.00 | 42 | 1016.0 |
| 20260507095525 | 15 | 293 | 0.0 | 1.6 | 0.00 | 0.00 | 0.00 | 41 | 1016.2 |
| 20260507095024 | 15 | 293 | 0.0 | 0.0 | 0.00 | 0.00 | 0.00 | 41 | 1016.2 |
| 20260507094519 | 15 | 293 | 0.0 | 1.6 | 0.00 | 0.00 | 0.00 | 41 | 1016.2 |
| 20260507094015 | 15 | 293 | 0.0 | 3.2 | 0.00 | 0.00 | 0.00 | 39 | 1016.2 |
| 20260507093530 | 15 | 293 | 0.0 | 4.8 | 0.00 | 0.00 | 0.00 | 39 | 1016.2 |
| 20260507093025 | 15 | 293 | 0.0 | 3.2 | 0.00 | 0.00 | 0.00 | 39 | 1016.2 |
| 20260507092520 | 15 | 293 | 0.0 | 0.0 | 0.00 | 0.00 | 0.00 | 38 | 1016.2 |
| 20260507092016 | 16 | 293 | 0.0 | 1.6 | 0.00 | 0.00 | 0.00 | 37 | 1016.2 |
| 20260507091513 | 16 | 293 | 0.0 | 1.6 | 0.00 | 0.00 | 0.00 | 36 | 1016.3 |
| 20260507091029 | 16 | 293 | 0.0 | 1.6 | 0.00 | 0.00 | 0.00 | 35 | 1016.4 |
| 20260507090524 | 16 | 293 | 0.0 | 3.2 | 0.00 | 0.00 | 0.00 | 35 | 1016.3 |
| 20260507090032 | 16 | 293 | 0.0 | 3.2 | 0.00 | 0.00 | 0.00 | 34 | 1016.3 |
| 20260507085513 | 16 | 293 | 0.0 | 3.2 | 0.00 | 0.00 | 0.00 | 34 | 1016.3 |
| 20260507085029 | 16 | 292 | 0.0 | 3.2 | 0.00 | 0.00 | 0.00 | 34 | 1016.3 |
| 20260507084525 | 16 | 292 | 0.0 | 3.2 | 0.00 | 0.00 | 0.00 | 33 | 1016.4 |
| 20260507084020 | 16 | 292 | 0.0 | 4.8 | 0.00 | 0.00 | 0.00 | 34 | 1016.3 |
| 20260507083520 | 16 | 291 | 1.6 | 4.8 | 0.00 | 0.00 | 0.00 | 34 | 1016.3 |
| 20260507083016 | 17 | 290 | 0.0 | 1.6 | 0.00 | 0.00 | 0.00 | 32 | 1016.3 |
| 20260507082512 | 17 | 293 | 0.0 | 3.2 | 0.00 | 0.00 | 0.00 | 31 | 1016.4 |
| 20260507082027 | 17 | 292 | 0.0 | 4.8 | 0.00 | 0.00 | 0.00 | 31 | 1016.4 |
| 20260507081522 | 17 | 292 | 0.0 | 4.8 | 0.00 | 0.00 | 0.00 | 31 | 1016.5 |
| 20260507081018 | 17 | 292 | 1.6 | 6.4 | 0.00 | 0.00 | 0.00 | 31 | 1016.5 |
| 20260507080514 | 17 | 295 | 1.6 | 6.4 | 0.00 | 0.00 | 0.00 | 31 | 1016.4 |
| 20260507080026 | 17 | 294 | 1.6 | 6.4 | 0.00 | 0.00 | 0.00 | 31 | 1016.4 |
| 20260507075527 | 17 | 294 | 0.0 | 3.2 | 0.00 | 0.00 | 0.00 | 31 | 1016.4 |
| 20260507075022 | 17 | 293 | 0.0 | 6.4 | 0.00 | 0.00 | 0.00 | 31 | 1016.3 |
| 20260507074518 | 17 | 295 | 0.0 | 6.4 | 0.00 | 0.00 | 0.00 | 31 | 1016.5 |
| 20260507074014 | 17 | 296 | 0.0 | 3.2 | 0.00 | 0.00 | 0.00 | 31 | 1016.4 |
| 20260507073530 | 17 | 296 | 0.0 | 1.6 | 0.00 | 0.00 | 0.00 | 30 | 1016.4 |
| 20260507073025 | 17 | 296 | 0.0 | 6.4 | 0.00 | 0.00 | 0.00 | 30 | 1016.3 |
| 20260507072525 | 18 | 294 | 1.6 | 6.4 | 0.00 | 0.00 | 0.00 | 29 | 1016.3 |
| 20260507072021 | 17 | 296 | 0.0 | 1.6 | 0.00 | 0.00 | 0.00 | 29 | 1016.5 |
| 20260507071517 | 18 | 296 | 0.0 | 3.2 | 0.00 | 0.00 | 0.00 | 28 | 1016.4 |
| 20260507071012 | 18 | 296 | 0.0 | 3.2 | 0.00 | 0.00 | 0.00 | 28 | 1016.5 |
| 20260507070528 | 17 | 296 | 0.0 | 3.2 | 0.00 | 0.00 | 0.00 | 29 | 1016.4 |
| 20260507070037 | 17 | 296 | 0.0 | 3.2 | 0.00 | 0.00 | 0.00 | 29 | 1016.5 |
| 20260507065518 | 18 | 296 | 1.6 | 3.2 | 0.00 | 0.00 | 0.00 | 29 | 1016.4 |
| 20260507065018 | 18 | 296 | 1.6 | 3.2 | 0.00 | 0.00 | 0.00 | 28 | 1016.3 |
| 20260507064514 | 18 | 296 | 0.0 | 3.2 | 0.00 | 0.00 | 0.00 | 27 | 1016.4 |
| 20260507064029 | 18 | 296 | 0.0 | 4.8 | 0.00 | 0.00 | 0.00 | 28 | 1016.4 |
| 20260507063524 | 18 | 296 | 1.6 | 3.2 | 0.00 | 0.00 | 0.00 | 27 | 1016.4 |
| 20260507063020 | 18 | 296 | 0.0 | 3.2 | 0.00 | 0.00 | 0.00 | 27 | 1016.4 |
| 20260507062516 | 18 | 296 | 1.6 | 3.2 | 0.00 | 0.00 | 0.00 | 26 | 1016.3 |
| 20260507062012 | 19 | 296 | 1.6 | 3.2 | 0.00 | 0.00 | 0.00 | 26 | 1016.3 |
| 20260507061511 | 18 | 296 | 1.6 | 6.4 | 0.00 | 0.00 | 0.00 | 27 | 1016.3 |
| 20260507061027 | 18 | 296 | 1.6 | 9.7 | 0.00 | 0.00 | 0.00 | 27 | 1016.3 |
| 20260507060523 | 19 | 299 | 1.6 | 9.7 | 0.00 | 0.00 | 0.00 | 26 | 1016.3 |
| 20260507060030 | 18 | 288 | 1.6 | 6.4 | 0.00 | 0.00 | 0.00 | 26 | 1016.3 |
| 20260507055511 | 19 | 290 | 1.6 | 6.4 | 0.00 | 0.00 | 0.00 | 26 | 1016.3 |
| 20260507055027 | 19 | 290 | 1.6 | 4.8 | 0.00 | 0.00 | 0.00 | 26 | 1016.3 |
| 20260507054523 | 19 | 290 | 1.6 | 6.4 | 0.00 | 0.00 | 0.00 | 26 | 1016.3 |
| 20260507054019 | 19 | 289 | 1.6 | 6.4 | 0.00 | 0.00 | 0.00 | 25 | 1016.4 |
| 20260507053518 | 19 | 288 | 1.6 | 6.4 | 0.00 | 0.00 | 0.00 | 25 | 1016.4 |
| 20260507053014 | 19 | 287 | 1.6 | 6.4 | 0.00 | 0.00 | 0.00 | 25 | 1016.3 |
| 20260507052530 | 19 | 290 | 1.6 | 6.4 | 0.00 | 0.00 | 0.00 | 25 | 1016.4 |
| 20260507052026 | 19 | 290 | 3.2 | 9.7 | 0.00 | 0.00 | 0.00 | 25 | 1016.2 |
| 20260507051522 | 20 | 286 | 1.6 | 11.3 | 0.00 | 0.00 | 0.00 | 25 | 1016.3 |
| 20260507051018 | 20 | 285 | 1.6 | 11.3 | 0.00 | 0.00 | 0.00 | 25 | 1016.3 |
| 20260507050513 | 20 | 288 | 3.2 | 6.4 | 0.00 | 0.00 | 0.00 | 25 | 1016.3 |
| 20260507050025 | 20 | 290 | 1.6 | 4.8 | 0.00 | 0.00 | 0.00 | 26 | 1016.2 |
| 20260507045527 | 20 | 290 | 1.6 | 3.2 | 0.00 | 0.00 | 0.00 | 25 | 1016.1 |
| 20260507045023 | 20 | 290 | 1.6 | 3.2 | 0.00 | 0.00 | 0.00 | 25 | 1016.1 |
| 20260507044518 | 20 | 290 | 0.0 | 4.8 | 0.00 | 0.00 | 0.00 | 25 | 1016.0 |
| 20260507044014 | 20 | 290 | 0.0 | 4.8 | 0.00 | 0.00 | 0.00 | 24 | 1016.0 |
| 20260507043530 | 20 | 290 | 0.0 | 11.3 | 0.00 | 0.00 | 0.00 | 24 | 1016.0 |
| 20260507043026 | 20 | 296 | 1.6 | 11.3 | 0.00 | 0.00 | 0.00 | 24 | 1015.8 |
| 20260507042525 | 20 | 293 | 3.2 | 6.4 | 0.00 | 0.00 | 0.00 | 24 | 1015.8 |
| 20260507042021 | 20 | 296 | 0.0 | 6.4 | 0.00 | 0.00 | 0.00 | 24 | 1015.8 |
| 20260507041517 | 21 | 292 | 1.6 | 8.0 | 0.00 | 0.00 | 0.00 | 23 | 1015.8 |
| 20260507041013 | 21 | 292 | 3.2 | 8.0 | 0.00 | 0.00 | 0.00 | 23 | 1015.8 |
| 20260507040528 | 21 | 294 | 1.6 | 8.0 | 0.00 | 0.00 | 0.00 | 23 | 1015.8 |
| 20260507040036 | 21 | 298 | 1.6 | 8.0 | 0.00 | 0.00 | 0.00 | 23 | 1015.7 |
| 20260507035517 | 21 | 293 | 1.6 | 6.4 | 0.00 | 0.00 | 0.00 | 23 | 1015.7 |
| 20260507035017 | 21 | 302 | 3.2 | 6.4 | 0.00 | 0.00 | 0.00 | 22 | 1015.7 |
| 20260507034533 | 21 | 292 | 1.6 | 8.0 | 0.00 | 0.00 | 0.00 | 22 | 1015.5 |
| 20260507034028 | 21 | 299 | 3.2 | 8.0 | 0.00 | 0.00 | 0.00 | 22 | 1015.6 |
| 20260507033524 | 21 | 304 | 1.6 | 4.8 | 0.00 | 0.00 | 0.00 | 22 | 1015.4 |
| 20260507033020 | 21 | 311 | 1.6 | 4.8 | 0.00 | 0.00 | 0.00 | 23 | 1015.5 |
| 20260507032516 | 21 | 289 | 1.6 | 4.8 | 0.00 | 0.00 | 0.00 | 23 | 1015.4 |
| 20260507032031 | 21 | 288 | 1.6 | 9.7 | 0.00 | 0.00 | 0.00 | 22 | 1015.4 |
| 20260507031527 | 22 | 286 | 3.2 | 9.7 | 0.00 | 0.00 | 0.00 | 22 | 1015.2 |
| 20260507031027 | 22 | 296 | 1.6 | 6.4 | 0.00 | 0.00 | 0.00 | 22 | 1015.3 |
| 20260507030522 | 22 | 300 | 1.6 | 6.4 | 0.00 | 0.00 | 0.00 | 22 | 1015.2 |
| 20260507030030 | 22 | 303 | 1.6 | 6.4 | 0.00 | 0.00 | 0.00 | 22 | 1015.1 |
| 20260507025531 | 22 | 308 | 1.6 | 4.8 | 0.00 | 0.00 | 0.00 | 21 | 1015.1 |
| 20260507025027 | 22 | 312 | 0.0 | 8.0 | 0.00 | 0.00 | 0.00 | 21 | 1015.0 |
| 20260507024523 | 22 | 312 | 1.6 | 8.0 | 0.00 | 0.00 | 0.00 | 21 | 1014.9 |
| 20260507024018 | 22 | 327 | 1.6 | 8.0 | 0.00 | 0.00 | 0.00 | 21 | 1014.8 |
| 20260507023518 | 22 | 295 | 1.6 | 8.0 | 0.00 | 0.00 | 0.00 | 21 | 1014.8 |
| 20260507023014 | 23 | 326 | 1.6 | 11.3 | 0.00 | 0.00 | 0.00 | 20 | 1014.8 |
| 20260507022530 | 23 | 323 | 1.6 | 4.8 | 0.00 | 0.00 | 0.00 | 20 | 1014.8 |
| 20260507022025 | 23 | 320 | 1.6 | 3.2 | 0.00 | 0.00 | 0.00 | 21 | 1014.7 |
| 20260507021521 | 23 | 320 | 1.6 | 4.8 | 0.00 | 0.00 | 0.00 | 20 | 1014.7 |
| 20260507021017 | 23 | 321 | 1.6 | 6.4 | 0.00 | 0.00 | 0.00 | 20 | 1014.7 |
| 20260507020533 | 23 | 298 | 1.6 | 8.0 | 0.00 | 0.00 | 0.00 | 20 | 1014.7 |
| 20260507020045 | 23 | 307 | 1.6 | 8.0 | 0.00 | 0.00 | 0.00 | 20 | 1014.6 |
| 20260507015526 | 23 | 348 | 0.0 | 8.0 | 0.00 | 0.00 | 0.00 | 21 | 1014.4 |
| 20260507015022 | 24 | 299 | 3.2 | 8.0 | 0.00 | 0.00 | 0.00 | 19 | 1014.5 |
| 20260507014517 | 24 | 326 | 1.6 | 8.0 | 0.00 | 0.00 | 0.00 | 19 | 1014.5 |
| 20260507014033 | 24 | 345 | 1.6 | 11.3 | 0.00 | 0.00 | 0.00 | 20 | 1014.5 |
| 20260507013021 | 24 | 324 | 1.6 | 8.0 | 0.00 | 0.00 | 0.00 | 19 | 1014.6 |
| 20260507012520 | 24 | 336 | 1.6 | 8.0 | 0.00 | 0.00 | 0.00 | 19 | 1014.6 |
| 20260507012016 | 25 | 317 | 1.6 | 8.0 | 0.00 | 0.00 | 0.00 | 20 | 1014.5 |
| 20260507011532 | 25 | 298 | 3.2 | 8.0 | 0.00 | 0.00 | 0.00 | 19 | 1014.5 |
| 20260507010524 | 25 | 356 | 4.8 | 11.3 | 0.00 | 0.00 | 0.00 | 20 | 1014.5 |
| 20260507010031 | 25 | 354 | 1.6 | 8.0 | 0.00 | 0.00 | 0.00 | 19 | 1014.6 |
| 20260507005532 | 25 | 312 | 3.2 | 8.0 | 0.00 | 0.00 | 0.00 | 19 | 1014.6 |
| 20260507005028 | 25 | 294 | 1.6 | 14.5 | 0.00 | 0.00 | 0.00 | 18 | 1014.5 |
| 20260507004528 | 25 | 290 | 6.4 | 14.5 | 0.00 | 0.00 | 0.00 | 19 | 1014.6 |
| 20260507004024 | 26 | 352 | 1.6 | 14.5 | 0.00 | 0.00 | 0.00 | 19 | 1014.5 |
| 20260507003520 | 26 | 273 | 3.2 | 14.5 | 0.00 | 0.00 | 0.00 | 19 | 1014.5 |
| 20260507003015 | 26 | 294 | 3.2 | 14.5 | 0.00 | 0.00 | 0.00 | 18 | 1014.5 |
| 20260507002531 | 26 | 277 | 3.2 | 14.5 | 0.00 | 0.00 | 0.00 | 18 | 1014.5 |
| 20260507002027 | 25 | 285 | 6.4 | 12.9 | 0.00 | 0.00 | 0.00 | 18 | 1014.4 |
| 20260507001523 | 26 | 302 | 4.8 | 11.3 | 0.00 | 0.00 | 0.00 | 18 | 1014.4 |
| 20260507001023 | 26 | 344 | 1.6 | 9.7 | 0.00 | 0.00 | 0.00 | 19 | 1014.6 |
| 20260507000518 | 26 | 1 | 1.6 | 11.3 | 0.00 | 0.00 | 0.00 | 18 | 1014.5 |
| 20260507000045 | 26 | 335 | 3.2 | 11.3 | 0.00 | 0.00 | 0.00 | 18 | 1014.5 |
| 20260506235526 | 26 | 298 | 3.2 | 14.5 | 0.00 | 0.00 | 0.00 | 18 | 1014.5 |
| 20260506235022 | 26 | 283 | 4.8 | 14.5 | 0.00 | 0.00 | 0.00 | 17 | 1014.5 |
| 20260506234518 | 26 | 290 | 4.8 | 12.9 | 0.00 | 0.00 | 0.00 | 17 | 1014.5 |
| 20260506234013 | 26 | 292 | 6.4 | 12.9 | 0.00 | 0.00 | 0.00 | 17 | 1014.4 |
| 20260506233532 | 26 | 273 | 3.2 | 12.9 | 0.00 | 0.00 | 0.00 | 17 | 1014.4 |
| 20260506233028 | 26 | 353 | 4.8 | 11.3 | 0.00 | 0.00 | 0.00 | 17 | 1014.4 |
| 20260506232026 | 26 | 19 | 3.2 | 9.7 | 0.00 | 0.00 | 0.00 | 18 | 1014.5 |
| 20260506231522 | 26 | 31 | 4.8 | 17.7 | 0.00 | 0.00 | 0.00 | 18 | 1014.5 |
| 20260506231018 | 26 | 333 | 6.4 | 17.7 | 0.00 | 0.00 | 0.00 | 18 | 1014.6 |
| 20260506230514 | 25 | 358 | 6.4 | 11.3 | 0.00 | 0.00 | 0.00 | 18 | 1014.7 |
| 20260506230043 | 26 | 31 | 4.8 | 9.7 | 0.00 | 0.00 | 0.00 | 18 | 1014.8 |
| 20260506225524 | 26 | 332 | 1.6 | 6.4 | 0.00 | 0.00 | 0.00 | 18 | 1014.8 |
| 20260506225023 | 26 | 309 | 1.6 | 6.4 | 0.00 | 0.00 | 0.00 | 19 | 1014.7 |
| 20260506224519 | 26 | 342 | 1.6 | 12.9 | 0.00 | 0.00 | 0.00 | 18 | 1014.8 |
| 20260506224014 | 26 | 2 | 6.4 | 12.9 | 0.00 | 0.00 | 0.00 | 19 | 1014.8 |
| 20260506223530 | 26 | 281 | 3.2 | 11.3 | 0.00 | 0.00 | 0.00 | 18 | 1014.7 |
| 20260506223026 | 27 | 276 | 4.8 | 9.7 | 0.00 | 0.00 | 0.00 | 17 | 1014.8 |
| 20260506222521 | 26 | 293 | 3.2 | 14.5 | 0.00 | 0.00 | 0.00 | 16 | 1014.9 |
| 20260506222017 | 27 | 312 | 6.4 | 16.1 | 0.00 | 0.00 | 0.00 | 18 | 1014.9 |
| 20260506221517 | 26 | 29 | 6.4 | 16.1 | 0.00 | 0.00 | 0.00 | 19 | 1014.9 |
| 20260506221032 | 26 | 301 | 6.4 | 14.5 | 0.00 | 0.00 | 0.00 | 19 | 1015.0 |
| 20260506220527 | 27 | 285 | 4.8 | 11.3 | 0.00 | 0.00 | 0.00 | 19 | 1015.1 |
| 20260506220036 | 27 | 250 | 6.4 | 11.3 | 0.00 | 0.00 | 0.00 | 19 | 1015.1 |
| 20260506215020 | 26 | 352 | 1.6 | 14.5 | 0.00 | 0.00 | 0.00 | 20 | 1015.3 |
| 20260506214517 | 25 | 9 | 4.8 | 11.3 | 0.00 | 0.00 | 0.00 | 22 | 1015.4 |
| 20260506214013 | 26 | 213 | 3.2 | 9.7 | 0.00 | 0.00 | 0.00 | 20 | 1015.4 |
| 20260506213514 | 25 | 36 | 1.6 | 9.7 | 0.00 | 0.00 | 0.00 | 22 | 1015.5 |
| 20260506213021 | 26 | 293 | 6.4 | 12.9 | 0.00 | 0.00 | 0.00 | 21 | 1015.5 |
| 20260506212517 | 26 | 287 | 4.8 | 12.9 | 0.00 | 0.00 | 0.00 | 20 | 1015.6 |
| 20260506212013 | 26 | 312 | 4.8 | 12.9 | 0.00 | 0.00 | 0.00 | 21 | 1015.6 |
| 20260506211528 | 25 | 24 | 6.4 | 12.9 | 0.00 | 0.00 | 0.00 | 20 | 1015.7 |
| 20260506211024 | 26 | 290 | 4.8 | 12.9 | 0.00 | 0.00 | 0.00 | 20 | 1015.8 |